Content
SEND FEEDBACK

Daily
Averages
Monthly
Summary
United States of America

ANN ARBOR, MICHIGAN


Home > North America > United States > Michigan
Elevation: 759 feet     Latitude: 42 17N     Longitude: 083 43W

WEATHER
 
SELECT A DAY
Number of Records: 203,372;   Date Range: 1/1/95 - 7/28/14
 
SHARE

PRINT THIS DATA

[ ← Previous Day ]
WEATHER ALMANAC - JUNE 9, 2014
[ Next Day → ]
[ °C ]   °F
Weather ElementAverageHighLow
Temperature67.3 °F80.1 °F (4:53 pm)57.9 °F (4:53 am)
Dewpoint53.1 °F57.9 °F (9:53 am)46.9 °F (7:53 pm)
Humidity64.2 %87 % (4:53 am)34 % (4:53 pm)
Barometer29.98 in30.02 in (8:51 am)29.92 in (7:53 pm)
Wind Speed4.7 mph8.1 mph (6:53 am)
Weather ElementAverage
Visibility10 mi
Wind DirectionENE (62.6 °)

Weather ElementTotal
Precipitation---
Cooling Degree Days4 (Base 65)
Growing Degree Days19 (Base 50)
Averaged from 23 records on June 9, 2014
WEATHER CONDITIONS BREAKOUT
WIND DIRECTION BREAKOUT
WEATHER BY HOUR - JUNE 9, 2014
[ °C ]   °F
Local TimeTemperatureDewpointHumidityBarometerVisibilityWind DirectionWind SpeedGust SpeedPrecipitationEventsConditions
1:53 AM59.0 °F51.1 °F75 %30.00 in10.0 miNNE (20°)5.8 mphClear
2:53 AM59.0 °F53.1 °F81 %30.00 in10.0 miNE (40°)5.8 mphClear
3:53 AM59.0 °F53.1 °F81 %29.99 in10.0 miNNE (30°)6.9 mphClear
4:53 AM57.9 °F54.0 °F87 %29.99 in10.0 miNNE (30°)5.8 mphClear
5:53 AM57.9 °F54.0 °F87 %29.99 in10.0 miNNE (20°)5.8 mphClear
6:53 AM59.0 °F55.0 °F87 %30.01 in10.0 miNorth (360°)8.1 mphClear
7:53 AM60.1 °F55.0 °F83 %30.00 in10.0 miNNE (20°)8.1 mphClear
8:51 AM66.2 °F57.2 °F73 %30.02 in10.0 miNNE (20°)4.6 mphPartly Cloudy
8:53 AM66.0 °F57.0 °F73 %30.01 in10.0 miNNE (20°)5.8 mphPartly Cloudy
9:53 AM68.0 °F57.9 °F70 %30.01 in10.0 miVariable3.5 mphClear
10:02 AM68.0 °F57.9 °F70 %30.02 in10.0 miENE (70°)5.8 mphPartly Cloudy
11:53 AM73.0 °F54.0 °F51 %30.00 in10.0 miEast (90°)4.6 mphClear
12:53 PM75.0 °F53.1 °F46 %29.99 in10.0 miVariable3.5 mphClear
2:53 PM78.1 °F48.9 °F36 %29.97 in10.0 miNE (40°)5.8 mphClear
3:53 PM79.0 °F51.1 °F38 %29.95 in10.0 miNorthClear
4:53 PM80.1 °F48.9 °F34 %29.93 in10.0 miVariable3.5 mphClear
5:53 PM79.0 °F51.1 °F38 %29.94 in10.0 miCalmPartly Cloudy
6:53 PM78.1 °F48.9 °F36 %29.93 in10.0 miNE (40°)4.6 mphClear
7:53 PM77.0 °F46.9 °F34 %29.92 in10.0 miNE (40°)3.5 mphClear
8:53 PM70.0 °F51.1 °F51 %29.93 in10.0 miSSE (150°)4.6 mphClear
9:53 PM61.0 °F54.0 °F78 %29.94 in10.0 miWSW (250°)3.5 mphClear
10:53 PM60.1 °F54.0 °F80 %29.94 in10.0 miCalmClear
11:53 PM57.9 °F54.0 °F87 %29.96 in10.0 miSSW (200°)3.5 mphClear
Hourly data recorded from KARB, located miles away from Ann Arbor, Michigan







STORIES FROM OUR PARTNERS